Location: São Paulo
(23.5507°S, 46.6334°W)
Time: 17:55:45
(UTC-03:00)

A-11 Canister half - Pass Details

Date: 12 February 2026
Orbit: 1524 x 1683 km, 47.3° (Epoch: 13 March)

Event Time Altitude Azimuth Distance (km) Brightness Sun altitude
Exits shadow 05:12:54 10° 300° (WNW) 3,876 10.5 -9.5°
Maximum altitude 05:22:44 62° 220° (SW) 1,850 9.4 -7.4°
Drops below altitude 10° 05:32:51 10° 140° (SE) 3,961 12.2 -5.2°
Sets 05:36:07 0° 137° (SE) 4,949 12.9 -4.5°
